Location: Qu�bec
(46.8000°N, 71.2500°W)
Time: 11:46:16
(UTC-04:00)

N. Korean satellite - Visible Passes

Search period start: 22 October 2017 00:00
Search period end: 01 November 2017 00:00
Orbit: 459 x 517 km, 97.2° (Epoch: 22 October)

Date Brightness Start Highest point End Pass type
(mag) Time Alt. Az. Time Alt. Az. Time Alt. Az.
22 Oct 9.0 19:26:59 10° SSW 19:29:55 25° W 19:32:51 10° NW visible
23 Oct 7.6 19:03:05 10° S 19:06:28 47° W 19:09:51 10° NNW visible
24 Oct 10.4 06:29:22 10° ENE 06:30:20 11° E 06:31:18 10° ESE visible
24 Oct 6.4 18:39:37 10° SSE 18:43:06 84° ENE 18:46:35 10° N visible
25 Oct 6.8 18:16:30 10° SE 18:19:47 41° ENE 18:23:05 10° N visible
25 Oct 9.9 19:51:46 10° WSW 19:53:33 13° W 19:55:20 10° WNW visible
26 Oct 9.0 19:27:07 10° SSW 19:30:01 24° W 19:32:54 10° NW visible
27 Oct 7.6 19:03:12 10° S 19:06:33 47° W 19:09:54 10° NNW visible
28 Oct 10.3 06:29:17 10° ENE 06:30:25 11° E 06:31:33 10° ESE visible
28 Oct 6.4 18:39:41 10° SSE 18:43:09 85° ENE 18:46:38 10° NNW visible
29 Oct 6.8 18:16:33 10° SE 18:19:49 42° ENE 18:23:07 10° N visible
29 Oct 9.9 19:51:52 10° WSW 19:53:36 13° W 19:55:19 10° WNW visible
30 Oct 9.0 19:27:11 10° SSW 19:30:02 24° W 19:32:55 10° NW visible
31 Oct 9.7 06:51:15 10° NE 06:54:00 21° E 06:56:47 10° SE visible
31 Oct 7.6 19:03:13 10° S 19:06:33 46° W 19:09:54 10° NNW visible
